Location: Berkeley
(37.8716°N, 122.2727°W)
Time: 19:02:29
(UTC-07:00)

Envisat - Pass Details

Date: 26 February 2019
Orbit: 764 x 766 km, 98.1° (Epoch: 15 October)

Event Time Altitude Azimuth Distance (km) Brightness Sun altitude
Rises 18:47:22 0° 164° (SSE) 3,214 6.1 -10.2°
Reaches altitude 10° 18:49:40 10° 164° (SSE) 2,292 5.3 -10.7°
Maximum altitude 18:54:43 86° 78° (ENE) 772 3.0 -11.6°
Drops below altitude 10° 18:59:49 10° 348° (NNW) 2,307 5.6 -12.7°
Sets 19:02:08 0° 349° (NNW) 3,237 6.4 -13.1°
